Location: Haut Kerinec
(48.0623°N, 4.4081°W)
Time: 21:38:36
(UTC+00:00)

STARLINK-1254 - Pass Details

Date: 09 October 2020
Orbit: 548 x 551 km, 53.0° (Epoch: 26 October)

Event Time Altitude Azimuth Distance (km) Brightness Sun altitude
Rises 20:45:47 0° 256° (WSW) 2,711 7.8 -31.0°
Reaches altitude 10° 20:48:03 10° 260° (W) 1,820 6.8 -31.4°
Enters shadow 20:49:19 19° 264° (W) 1,334 6.1 -31.6°
